TimePST,TemperatureF,Dew PointF,Humidity,Sea Level PressureIn,VisibilityMPH,Wind Direction,Wind SpeedMPH,Gust SpeedMPH,PrecipitationIn,Events,Conditions,WindDirDegrees,DateUTC
12:51 AM,46.0,42.1,86,29.97,10.0,East,3.5,-,N/A,,Scattered Clouds,80,2013-02-09 08:51:00
1:51 AM,46.9,41.0,80,29.97,10.0,ESE,3.5,-,N/A,,Scattered Clouds,110,2013-02-09 09:51:00
2:51 AM,45.0,39.9,82,29.98,10.0,ENE,8.1,-,N/A,,Mostly Cloudy,60,2013-02-09 10:51:00
3:51 AM,46.9,39.9,77,29.98,10.0,ESE,4.6,-,0.00,,Overcast,120,2013-02-09 11:51:00
4:51 AM,46.0,39.9,79,29.99,10.0,Calm,Calm,-,0.00,,Mostly Cloudy,0,2013-02-09 12:51:00
5:51 AM,46.0,39.0,76,30.00,10.0,NE,3.5,-,N/A,,Partly Cloudy,50,2013-02-09 13:51:00
6:51 AM,45.0,39.0,80,30.03,10.0,East,4.6,-,N/A,,Partly Cloudy,80,2013-02-09 14:51:00
7:51 AM,48.0,39.0,71,30.06,10.0,East,4.6,-,N/A,,Scattered Clouds,100,2013-02-09 15:51:00
8:51 AM,50.0,39.9,68,30.07,10.0,SE,4.6,-,N/A,,Scattered Clouds,130,2013-02-09 16:51:00
9:51 AM,53.1,41.0,64,30.09,10.0,South,6.9,-,N/A,,Scattered Clouds,170,2013-02-09 17:51:00
10:51 AM,55.0,39.0,55,30.09,10.0,SSE,5.8,-,N/A,,Scattered Clouds,160,2013-02-09 18:51:00
11:51 AM,55.0,39.0,55,30.09,10.0,South,6.9,-,N/A,,Mostly Cloudy,180,2013-02-09 19:51:00
12:51 PM,55.9,39.0,53,30.08,10.0,SW,10.4,-,N/A,,Mostly Cloudy,220,2013-02-09 20:51:00
1:51 PM,57.9,37.0,46,30.07,10.0,WNW,11.5,-,N/A,,Mostly Cloudy,290,2013-02-09 21:51:00
2:51 PM,57.9,36.0,44,30.07,10.0,West,11.5,-,N/A,,Scattered Clouds,270,2013-02-09 22:51:00
3:51 PM,57.0,37.9,49,30.07,10.0,WNW,10.4,16.1,N/A,,Partly Cloudy,300,2013-02-09 23:51:00
4:51 PM,55.0,39.0,55,30.07,10.0,NW,6.9,-,N/A,,Partly Cloudy,310,2013-02-10 00:51:00
5:51 PM,55.0,37.9,53,30.08,10.0,West,5.8,-,N/A,,Partly Cloudy,280,2013-02-10 01:51:00
6:51 PM,54.0,37.9,55,30.09,10.0,WNW,3.5,-,N/A,,Partly Cloudy,290,2013-02-10 02:51:00
7:51 PM,53.1,37.0,55,30.10,10.0,Calm,Calm,-,N/A,,Partly Cloudy,0,2013-02-10 03:51:00
8:51 PM,52.0,39.0,61,30.12,10.0,Calm,Calm,-,N/A,,Partly Cloudy,0,2013-02-10 04:51:00
9:51 PM,53.1,37.9,57,30.13,10.0,Calm,Calm,-,N/A,,Mostly Cloudy,0,2013-02-10 05:51:00
10:51 PM,51.1,39.0,63,30.14,10.0,Calm,Calm,-,N/A,,Partly Cloudy,0,2013-02-10 06:51:00
11:51 PM,48.9,39.0,69,30.14,10.0,Calm,Calm,-,N/A,,Scattered Clouds,0,2013-02-10 07:51:00